Weather History for KRZL - October, 2012

Change the Weather History Date:

Thursday, October 18, 2012

  Actual Average (KVPZ) Record (KVPZ)
Temperature  
Mean Temperature 52 °F 52 °F  
Max Temperature 59 °F 62 °F 80 °F (2007)
Min Temperature 44 °F 42 °F 32 °F (1999)
Degree Days  
Heating Degree Days 14 13  
Month to date heating degree days 200  
Since 1 July heating degree days 330  
Cooling Degree Days 0 0  
Month to date cooling degree days 11  
Year to date cooling degree days 713  
Growing Degree Days 2 (Base 50)    
Moisture  
Dew Point 42 °F    
Average Humidity 79    
Maximum Humidity 100    
Minimum Humidity 36    
Precipitation  
Precipitation 0.00 in 0.12 in 1.58 in (2007)
Month to date precipitation 1.89  
Year to date precipitation 30.64  
Sea Level Pressure  
Sea Level Pressure 29.50 in    
Wind  
Wind Speed 12 mph (SW)    
Max Wind Speed 25 mph    
Max Gust Speed 38 mph    
Visibility 10 miles    
Events Rain    
T = Trace of Precipitation, MM = Missing Value Source: NWS Daily Summary

Daily Weather History Graph

Daily Weather History Graph

Search for Another Location

Airport or City:

Trip Planner

Search our weather history database for the weather conditions in past years. The results will help you decide how hot, cold, wet, or windy it might be!

Date:

Astronomy

Oct. 18, 2012 Rise Set
Actual Time 7:03 AM CDT 6:02 PM CDT
Civil Twilight 6:36 AM CDT 6:30 PM CDT
Nautical Twilight 6:04 AM CDT 7:02 PM CDT
Astronomical Twilight 5:32 AM CDT 7:34 PM CDT
Moon 10:47 AM CDT (10/18) 8:35 PM CDT (10/18)
Length of Visible Light 11h 54m
Length of Day
10h 58m
Waxing Crescent, 14% of the Moon is Illuminated
Oct 18
Waxing Crescent
Oct 21
First Quarter
Oct 29
Full
Nov 6
Last Quarter
Nov 13
New

Hourly Weather History & Observations

Time (CDT) Temp. Windchill Dew Point Humidity Pressure Visibility Wind Dir Wind Speed Gust Speed Precip Events Conditions
12:15 AM 57.2 °F - 55.4 °F 94% 29.38 in 10.0 mi SSW 9.2 mph - N/A   Overcast
12:35 AM 55.4 °F - 53.6 °F 94% 29.39 in 5.0 mi West 12.7 mph 21.9 mph N/A   Drizzle
12:55 AM 53.6 °F - 51.8 °F 94% 29.40 in 5.0 mi West 12.7 mph 18.4 mph N/A Rain Rain
1:15 AM 51.8 °F - 51.8 °F 100% 29.39 in 7.0 mi West 12.7 mph 18.4 mph N/A   Drizzle
1:35 AM 51.8 °F - 50.0 °F 94% 29.40 in 7.0 mi WSW 6.9 mph - N/A Rain Rain
1:55 AM 51.8 °F - 51.8 °F 100% 29.39 in 7.0 mi WSW 6.9 mph - N/A   Light Drizzle
2:15 AM 51.8 °F - 51.8 °F 100% 29.39 in 10.0 mi WSW 8.1 mph - N/A Rain Light Rain
2:35 AM 51.8 °F - 50.0 °F 94% 29.40 in 10.0 mi WSW 12.7 mph 21.9 mph N/A   Light Drizzle
2:55 AM 51.8 °F - 50.0 °F 94% 29.40 in 7.0 mi WSW 15.0 mph 21.9 mph N/A Rain Rain
3:15 AM 51.8 °F - 50.0 °F 94% 29.40 in 7.0 mi WSW 12.7 mph 21.9 mph N/A Rain Rain
3:35 AM 50.0 °F - 50.0 °F 100% 29.40 in 10.0 mi WSW 12.7 mph 17.3 mph N/A Rain Light Rain
3:55 AM 50.0 °F - 46.4 °F 87% 29.40 in 10.0 mi WSW 11.5 mph 20.7 mph N/A   Scattered Clouds
4:15 AM 48.2 °F - 44.6 °F 87% 29.41 in 10.0 mi WSW 11.5 mph 16.1 mph N/A   Clear
4:35 AM 46.4 °F 41.5 °F 44.6 °F 93% 29.41 in 10.0 mi WSW 10.4 mph - N/A   Clear
4:55 AM 46.4 °F 41.5 °F 42.8 °F 87% 29.41 in 10.0 mi WSW 10.4 mph - N/A   Clear
5:15 AM 46.4 °F 40.4 °F 42.8 °F 87% 29.42 in 10.0 mi SW 13.8 mph 18.4 mph N/A   Scattered Clouds
5:35 AM 46.4 °F 41.5 °F 42.8 °F 87% 29.43 in 10.0 mi SW 10.4 mph 18.4 mph N/A   Scattered Clouds
5:55 AM 44.6 °F 38.8 °F 42.8 °F 93% 29.44 in 10.0 mi SW 11.5 mph 17.3 mph N/A   Scattered Clouds
6:15 AM 44.6 °F 38.8 °F 42.8 °F 93% 29.45 in 10.0 mi SW 11.5 mph - N/A   Clear
6:35 AM 44.6 °F 38.8 °F 41.0 °F 87% 29.45 in 10.0 mi SW 11.5 mph - N/A   Clear
6:55 AM 44.6 °F 38.4 °F 41.0 °F 87% 29.46 in 10.0 mi SW 12.7 mph 20.7 mph N/A   Clear
7:15 AM 44.6 °F 39.7 °F 41.0 °F 87% 29.46 in 10.0 mi SW 9.2 mph 19.6 mph N/A   Clear
7:55 AM 44.6 °F 39.7 °F 41.0 °F 87% 29.48 in 10.0 mi SW 9.2 mph - N/A   Clear
8:15 AM 46.4 °F 42.4 °F 41.0 °F 81% 29.48 in 10.0 mi SW 8.1 mph - N/A   Clear
8:35 AM 46.4 °F 41.5 °F 41.0 °F 81% 29.48 in 10.0 mi SSW 10.4 mph - N/A   Clear
9:15 AM 50.0 °F - 42.8 °F 76% 29.49 in 10.0 mi SSW 13.8 mph 18.4 mph N/A   Clear
9:35 AM 50.0 °F - 42.8 °F 76% 29.49 in 10.0 mi SSW 15.0 mph 19.6 mph N/A   Clear
9:55 AM 51.8 °F - 42.8 °F 71% 29.49 in 10.0 mi SSW 13.8 mph 23.0 mph N/A   Clear
10:15 AM 51.8 °F - 42.8 °F 71% 29.49 in 10.0 mi SSW 15.0 mph 23.0 mph N/A   Clear
10:35 AM 53.6 °F - 42.8 °F 67% 29.50 in 10.0 mi SW 17.3 mph 25.3 mph N/A   Clear
11:15 AM 53.6 °F - 41.0 °F 62% 29.50 in 10.0 mi SSW 16.1 mph 25.3 mph N/A   Clear
11:35 AM 55.4 °F - 41.0 °F 58% 29.51 in 10.0 mi SSW 15.0 mph 24.2 mph N/A   Clear
11:55 AM 55.4 °F - 39.2 °F 54% 29.50 in 10.0 mi SSW 15.0 mph 23.0 mph N/A   Clear
12:15 PM 55.4 °F - 39.2 °F 54% 29.50 in 10.0 mi SSW 18.4 mph 23.0 mph N/A   Clear
12:35 PM 55.4 °F - 37.4 °F 51% 29.50 in 10.0 mi SSW 19.6 mph 24.2 mph N/A   Clear
12:55 PM 59.0 °F - 33.8 °F 39% 29.49 in 10.0 mi SSW 12.7 mph 25.3 mph N/A   Clear
1:15 PM 59.0 °F - 35.6 °F 42% 29.49 in 10.0 mi South 23.0 mph 29.9 mph N/A   Scattered Clouds
1:35 PM 59.0 °F - 32.0 °F 36% 29.49 in 10.0 mi SSW 23.0 mph 27.6 mph N/A   Scattered Clouds
1:55 PM 55.4 °F - 32.0 °F 41% 29.49 in 10.0 mi SSW 21.9 mph 28.8 mph N/A   Scattered Clouds
2:15 PM 57.2 °F - 30.2 °F 36% 29.50 in 10.0 mi SSW 25.3 mph 36.8 mph N/A   Scattered Clouds
2:35 PM 55.4 °F - 32.0 °F 41% 29.50 in 10.0 mi SSW 18.4 mph 26.5 mph N/A   Scattered Clouds
2:55 PM 55.4 °F - 32.0 °F 41% 29.50 in 10.0 mi SSW 19.6 mph 28.8 mph N/A   Mostly Cloudy
3:15 PM 55.4 °F - 32.0 °F 41% 29.51 in 10.0 mi SW 20.7 mph 24.2 mph N/A   Overcast
3:35 PM 53.6 °F - 32.0 °F 44% 29.53 in 10.0 mi SW 21.9 mph 33.4 mph N/A   Overcast
3:55 PM 50.0 °F - 35.6 °F 58% 29.55 in 7.0 mi SW 20.7 mph 38.0 mph N/A   Drizzle
4:15 PM 48.2 °F - 39.2 °F 71% 29.56 in 10.0 mi SW 13.8 mph 28.8 mph N/A Rain Rain
4:35 PM 46.4 °F 40.1 °F 41.0 °F 81% 29.57 in 10.0 mi SW 15.0 mph 20.7 mph N/A Rain Rain
4:55 PM 46.4 °F 41.5 °F 42.8 °F 87% 29.58 in 10.0 mi SW 10.4 mph - N/A   Drizzle
5:15 PM 46.4 °F 41.9 °F 42.8 °F 87% 29.59 in 10.0 mi SW 9.2 mph - N/A Rain Rain
5:35 PM 44.6 °F 39.7 °F 42.8 °F 93% 29.59 in 10.0 mi SW 9.2 mph - N/A   Drizzle
5:55 PM 44.6 °F 40.2 °F 42.8 °F 93% 29.60 in 10.0 mi SW 8.1 mph - N/A Rain Rain
6:15 PM 44.6 °F 40.7 °F 42.8 °F 93% 29.60 in 10.0 mi SSW 6.9 mph - N/A Rain Light Rain
6:55 PM 44.6 °F 39.2 °F 42.8 °F 93% 29.60 in 10.0 mi SSW 10.4 mph 16.1 mph N/A Rain Light Rain
7:15 PM 44.6 °F 39.7 °F 42.8 °F 93% 29.61 in 10.0 mi SSW 9.2 mph - N/A Rain Rain
7:35 PM 44.6 °F 40.2 °F 42.8 °F 93% 29.61 in 10.0 mi SSW 8.1 mph - N/A Rain Light Rain
7:55 PM 44.6 °F 39.7 °F 42.8 °F 93% 29.61 in 10.0 mi SSW 9.2 mph - N/A Rain Rain
8:15 PM 44.6 °F 40.2 °F 42.8 °F 93% 29.60 in 10.0 mi South 8.1 mph - N/A   Light Drizzle
8:35 PM 44.6 °F 40.2 °F 42.8 °F 93% 29.60 in 10.0 mi South 8.1 mph - N/A Rain Light Rain
8:55 PM 44.6 °F 39.7 °F 42.8 °F 93% 29.60 in 10.0 mi SSW 9.2 mph - N/A Rain Light Rain
9:15 PM 44.6 °F 39.7 °F 42.8 °F 93% 29.59 in 10.0 mi South 9.2 mph - N/A Rain Light Rain
9:35 PM 44.6 °F 39.7 °F 42.8 °F 93% 29.58 in 10.0 mi South 9.2 mph - N/A Rain Light Rain
9:55 PM 44.6 °F 40.7 °F 42.8 °F 93% 29.58 in 10.0 mi South 6.9 mph - N/A Rain Rain
10:15 PM 44.6 °F 40.2 °F 42.8 °F 93% 29.58 in 10.0 mi South 8.1 mph - N/A   Drizzle
10:55 PM 44.6 °F 42.2 °F 42.8 °F 93% 29.56 in 10.0 mi SSE 4.6 mph - N/A   Light Drizzle